GJS4422 KRIC-KIAD

Flight info

Callsign GJS4422
Flight time 0h 31m
Altitude 8000
Route BNTLY CAVLR6
Aircraft CRJ7/M-SDFGIRWY/S

Departure

Time 2026-04-25 00:40
Airport Richmond International Airport (KRIC)

Arrival

Time 2026-04-25 01:11
Airport Washington Dulles International Airport (KIAD)
Time Latitude Longitude Altitude Speed Heading
2026-04-24 23:32 37.50753 -77.33126 174 ft 0 kts 238°
2026-04-25 00:25 37.50757 -77.33118 174 ft 2 kts 239°
2026-04-25 00:25 37.50762 -77.33106 174 ft 2 kts 240°
2026-04-25 00:25 37.50769 -77.33090 174 ft 2 kts 249°
2026-04-25 00:26 37.50772 -77.33073 174 ft 2 kts 267°
2026-04-25 00:26 37.50771 -77.33056 174 ft 2 kts 275°
2026-04-25 00:26 37.50769 -77.33039 174 ft 2 kts 284°
2026-04-25 00:26 37.50765 -77.33029 174 ft 1 kts 320°
2026-04-25 00:27 37.50764 -77.33028 174 ft 0 kts 323°
2026-04-25 00:31 37.50765 -77.33028 174 ft 0 kts 334°
2026-04-25 00:31 37.50766 -77.33027 174 ft 0 kts 19°
2026-04-25 00:32 37.50767 -77.33026 174 ft 0 kts 55°
2026-04-25 00:32 37.50770 -77.33020 174 ft 3 kts 58°
2026-04-25 00:33 37.50795 -77.32970 174 ft 8 kts 54°
2026-04-25 00:33 37.50837 -77.32918 174 ft 9 kts 31°
2026-04-25 00:33 37.50903 -77.32890 174 ft 11 kts 13°
2026-04-25 00:33 37.50981 -77.32867 174 ft 12 kts 14°
2026-04-25 00:34 37.51069 -77.32839 174 ft 12 kts 13°
2026-04-25 00:34 37.51155 -77.32813 174 ft 13 kts 13°
2026-04-25 00:34 37.51232 -77.32790 174 ft 11 kts 13°
2026-04-25 00:34 37.51302 -77.32769 174 ft 11 kts 13°
2026-04-25 00:35 37.51380 -77.32746 174 ft 12 kts 13°
2026-04-25 00:35 37.51457 -77.32722 174 ft 12 kts 13°
2026-04-25 00:35 37.51535 -77.32699 174 ft 12 kts 13°
2026-04-25 00:35 37.51601 -77.32678 174 ft 9 kts 22°
2026-04-25 00:36 37.51634 -77.32636 174 ft 4 kts 69°
2026-04-25 00:36 37.51638 -77.32604 174 ft 3 kts 87°
2026-04-25 00:36 37.51638 -77.32589 174 ft 1 kts 89°
2026-04-25 00:36 37.51638 -77.32578 174 ft 0 kts 90°
2026-04-25 00:38 37.51638 -77.32572 174 ft 2 kts 90°
2026-04-25 00:38 37.51637 -77.32541 174 ft 5 kts 93°
2026-04-25 00:38 37.51633 -77.32473 175 ft 8 kts 95°
2026-04-25 00:39 37.51635 -77.32404 176 ft 7 kts 74°
2026-04-25 00:39 37.51637 -77.32347 176 ft 7 kts 118°
2026-04-25 00:39 37.51570 -77.32280 176 ft 33 kts 147°
2026-04-25 00:39 37.51176 -77.31964 175 ft 100 kts 148°
2026-04-25 00:40 37.50450 -77.31383 264 ft 137 kts 147°
2026-04-25 00:40 37.49659 -77.30709 833 ft 138 kts 144°
2026-04-25 00:40 37.48816 -77.30006 1265 ft 156 kts 146°
2026-04-25 00:40 37.47877 -77.29284 1894 ft 157 kts 150°
2026-04-25 00:41 37.46840 -77.28865 2429 ft 171 kts 175°
2026-04-25 00:41 37.45562 -77.29101 2790 ft 197 kts 201°
2026-04-25 00:41 37.44409 -77.30037 3642 ft 196 kts 226°
2026-04-25 00:41 37.43659 -77.31462 4404 ft 203 kts 252°
2026-04-25 00:42 37.43489 -77.33292 4877 ft 224 kts 277°
2026-04-25 00:42 37.43954 -77.35231 5376 ft 245 kts 296°
2026-04-25 00:42 37.45022 -77.37012 5886 ft 263 kts 316°
2026-04-25 00:42 37.46621 -77.38087 6857 ft 265 kts 339°
2026-04-25 00:43 37.48432 -77.38745 7485 ft 277 kts 342°
2026-04-25 00:43 37.50325 -77.39399 7796 ft 286 kts 341°
2026-04-25 00:43 37.52237 -77.40067 7928 ft 286 kts 341°
2026-04-25 00:43 37.54134 -77.40731 7969 ft 280 kts 341°
2026-04-25 00:44 37.56037 -77.41408 7986 ft 285 kts 341°
2026-04-25 00:44 37.57958 -77.42116 7990 ft 284 kts 340°
2026-04-25 00:44 37.59835 -77.42836 7998 ft 283 kts 340°
2026-04-25 00:44 37.61704 -77.43586 7998 ft 282 kts 339°
2026-04-25 00:45 37.63574 -77.44322 8000 ft 281 kts 340°
2026-04-25 00:45 37.65450 -77.45039 8003 ft 281 kts 340°
2026-04-25 00:45 37.67326 -77.45753 8007 ft 281 kts 340°
2026-04-25 00:45 37.69201 -77.46463 8004 ft 281 kts 341°
2026-04-25 00:46 37.71080 -77.47171 8009 ft 282 kts 341°
2026-04-25 00:46 37.72942 -77.47871 8009 ft 280 kts 341°
2026-04-25 00:46 37.76632 -77.49248 8007 ft 276 kts 341°
2026-04-25 00:47 37.78506 -77.49954 8007 ft 279 kts 340°
2026-04-25 00:47 37.80352 -77.50648 8008 ft 282 kts 341°
2026-04-25 00:47 37.82235 -77.51352 8002 ft 281 kts 341°
2026-04-25 00:47 37.84123 -77.52063 7999 ft 282 kts 341°
2026-04-25 00:48 37.85983 -77.52760 7992 ft 281 kts 341°
2026-04-25 00:48 37.87870 -77.53470 7995 ft 284 kts 341°
2026-04-25 00:48 37.89766 -77.54185 7995 ft 283 kts 341°
2026-04-25 00:48 37.91659 -77.54897 7992 ft 283 kts 341°
2026-04-25 00:49 37.93536 -77.55603 7991 ft 282 kts 341°
2026-04-25 00:49 37.95430 -77.56317 7988 ft 282 kts 341°
2026-04-25 00:49 37.97305 -77.57024 7989 ft 284 kts 341°
2026-04-25 00:49 37.99218 -77.57744 7983 ft 286 kts 341°
2026-04-25 00:50 38.01101 -77.58447 7980 ft 279 kts 341°
2026-04-25 00:50 38.02951 -77.59142 7977 ft 275 kts 340°
2026-04-25 00:50 38.04821 -77.59589 7959 ft 276 kts
2026-04-25 00:50 38.06674 -77.59099 7977 ft 279 kts 12°
2026-04-25 00:51 38.08556 -77.58267 7991 ft 293 kts 20°
2026-04-25 00:51 38.10395 -77.57160 7998 ft 290 kts 24°
2026-04-25 00:51 38.12188 -77.55961 7996 ft 287 kts 25°
2026-04-25 00:51 38.13924 -77.54766 7988 ft 284 kts 25°
2026-04-25 00:52 38.15671 -77.53590 7984 ft 286 kts 24°
2026-04-25 00:52 38.17444 -77.52435 7987 ft 287 kts 24°
2026-04-25 00:52 38.19216 -77.51267 7989 ft 289 kts 24°
2026-04-25 00:52 38.21068 -77.50253 7987 ft 287 kts 13°
2026-04-25 00:53 38.22988 -77.49591 7995 ft 287 kts 11°
2026-04-25 00:53 38.24913 -77.48967 7993 ft 285 kts 11°
2026-04-25 00:53 38.26842 -77.48322 7991 ft 285 kts 12°
2026-04-25 00:53 38.28733 -77.47622 7984 ft 283 kts 13°
2026-04-25 00:54 38.30641 -77.46869 7784 ft 285 kts 14°
2026-04-25 00:54 38.32529 -77.46125 7532 ft 282 kts 14°
2026-04-25 00:54 38.34384 -77.45389 7286 ft 283 kts 14°
2026-04-25 00:54 38.35645 -77.44892 7170 ft 283 kts 14°
2026-04-25 00:55 38.37503 -77.44151 7068 ft 279 kts 14°
2026-04-25 00:55 38.39965 -77.43178 7012 ft 275 kts 14°
2026-04-25 00:55 38.41791 -77.42457 7002 ft 279 kts 14°
2026-04-25 00:55 38.43052 -77.41956 6930 ft 284 kts 14°
2026-04-25 00:56 38.44934 -77.41216 6651 ft 280 kts 14°
2026-04-25 00:56 38.46763 -77.40494 6364 ft 276 kts 14°
2026-04-25 00:56 38.48608 -77.39768 6072 ft 279 kts 14°
2026-04-25 00:56 38.50465 -77.39039 5838 ft 279 kts 13°
2026-04-25 00:57 38.52327 -77.38370 5669 ft 274 kts 12°
2026-04-25 00:57 38.54168 -77.37773 5490 ft 271 kts 11°
2026-04-25 00:57 38.55990 -77.37193 5335 ft 268 kts 11°
2026-04-25 00:57 38.57795 -77.36620 5191 ft 271 kts 11°
2026-04-25 00:58 38.59627 -77.36197 5044 ft 272 kts
2026-04-25 00:58 38.61506 -77.36108 4911 ft 271 kts 357°
2026-04-25 00:58 38.63409 -77.36112 4771 ft 269 kts 356°
2026-04-25 00:58 38.64640 -77.36121 4694 ft 268 kts 357°
2026-04-25 00:59 38.65518 -77.36126 4619 ft 268 kts 357°
2026-04-25 00:59 38.67416 -77.36113 4464 ft 269 kts 358°
2026-04-25 00:59 38.69035 -77.36066 4325 ft 264 kts 359°
2026-04-25 00:59 38.70851 -77.36004 4184 ft 270 kts 359°
2026-04-25 01:00 38.72684 -77.35947 4088 ft 256 kts 359°
2026-04-25 01:00 38.74090 -77.35912 4041 ft 262 kts 358°
2026-04-25 01:00 38.75283 -77.35881 4030 ft 263 kts 358°
2026-04-25 01:00 38.77032 -77.35837 4014 ft 250 kts 358°
2026-04-25 01:01 38.78303 -77.35804 3973 ft 242 kts 358°
2026-04-25 01:01 38.79996 -77.35757 3774 ft 243 kts 358°
2026-04-25 01:01 38.81117 -77.35733 3642 ft 244 kts 358°
2026-04-25 01:01 38.82328 -77.35706 3495 ft 244 kts 359°
2026-04-25 01:02 38.84004 -77.35674 3364 ft 240 kts 358°
2026-04-25 01:02 38.85449 -77.35644 3251 ft 233 kts 358°
2026-04-25 01:02 38.87061 -77.35611 3136 ft 226 kts 358°
2026-04-25 01:02 38.88604 -77.35583 3068 ft 222 kts 358°
2026-04-25 01:03 38.89847 -77.35565 3034 ft 221 kts 358°
2026-04-25 01:03 38.91292 -77.35544 3020 ft 221 kts 358°
2026-04-25 01:03 38.92845 -77.35523 3014 ft 221 kts 358°
2026-04-25 01:03 38.94245 -77.35493 3003 ft 220 kts 359°
2026-04-25 01:04 38.95460 -77.35443 3003 ft 222 kts
2026-04-25 01:04 38.97009 -77.35336 3005 ft 221 kts
2026-04-25 01:04 38.98528 -77.35203 3001 ft 217 kts
2026-04-25 01:04 38.99888 -77.35072 3037 ft 212 kts
2026-04-25 01:05 39.01363 -77.34928 3031 ft 206 kts
2026-04-25 01:05 39.02760 -77.34793 3027 ft 203 kts
2026-04-25 01:05 39.04172 -77.34659 3025 ft 205 kts
2026-04-25 01:05 39.05606 -77.34522 2973 ft 208 kts
2026-04-25 01:06 39.07020 -77.34645 2789 ft 203 kts 337°
2026-04-25 01:06 39.07979 -77.35848 2583 ft 195 kts 291°
2026-04-25 01:06 39.08213 -77.37511 2450 ft 184 kts 275°
2026-04-25 01:06 39.08354 -77.39107 2315 ft 179 kts 272°
2026-04-25 01:07 39.08474 -77.40668 2158 ft 169 kts 271°
2026-04-25 01:07 39.08417 -77.42133 2040 ft 161 kts 243°
2026-04-25 01:07 39.07628 -77.42979 1989 ft 149 kts 191°
2026-04-25 01:07 39.06615 -77.43153 2019 ft 146 kts 186°
2026-04-25 01:08 39.05620 -77.43307 1900 ft 135 kts 185°
2026-04-25 01:08 39.04718 -77.43409 1700 ft 128 kts 181°
2026-04-25 01:08 39.03831 -77.43462 1576 ft 127 kts 179°
2026-04-25 01:08 39.02941 -77.43476 1510 ft 129 kts 179°
2026-04-25 01:09 39.02034 -77.43488 1367 ft 132 kts 179°
2026-04-25 01:09 39.01124 -77.43493 1159 ft 129 kts 180°
2026-04-25 01:09 39.00292 -77.43503 991 ft 133 kts 180°
2026-04-25 01:09 38.99352 -77.43525 893 ft 136 kts 180°
2026-04-25 01:10 38.98418 -77.43543 763 ft 136 kts 180°
2026-04-25 01:10 38.97463 -77.43560 613 ft 135 kts 181°
2026-04-25 01:10 38.96518 -77.43586 491 ft 135 kts 180°
2026-04-25 01:10 38.95591 -77.43599 352 ft 133 kts 180°
2026-04-25 01:11 38.94878 -77.43608 299 ft 109 kts 181°
2026-04-25 01:11 38.94455 -77.43613 301 ft 69 kts 181°
2026-04-25 01:11 38.94169 -77.43619 303 ft 27 kts 181°
2026-04-25 01:11 38.94010 -77.43650 302 ft 21 kts 195°
2026-04-25 01:12 38.93890 -77.43725 301 ft 16 kts 210°
2026-04-25 01:12 38.93810 -77.43783 303 ft 12 kts 209°
2026-04-25 01:12 38.93755 -77.43830 305 ft 7 kts 238°
2026-04-25 01:12 38.93764 -77.43859 301 ft 7 kts 331°
2026-04-25 01:13 38.93817 -77.43867 302 ft 8 kts 359°
2026-04-25 01:13 38.93887 -77.43867 302 ft 12 kts
2026-04-25 01:13 38.93969 -77.43866 303 ft 12 kts
2026-04-25 01:13 38.94051 -77.43866 304 ft 12 kts
2026-04-25 01:14 38.94133 -77.43865 307 ft 11 kts
2026-04-25 01:14 38.94212 -77.43864 306 ft 12 kts
2026-04-25 01:14 38.94298 -77.43862 305 ft 12 kts
2026-04-25 01:14 38.94373 -77.43862 303 ft 11 kts 348°
2026-04-25 01:15 38.94406 -77.43921 304 ft 9 kts 273°
2026-04-25 01:15 38.94408 -77.44011 303 ft 11 kts 271°
2026-04-25 01:15 38.94409 -77.44111 302 ft 12 kts 271°
2026-04-25 01:15 38.94410 -77.44232 300 ft 14 kts 269°
2026-04-25 01:16 38.94411 -77.44355 300 ft 15 kts 270°
2026-04-25 01:16 38.94412 -77.44462 302 ft 9 kts 271°
2026-04-25 01:16 38.94413 -77.44525 300 ft 6 kts 271°
2026-04-25 01:16 38.94414 -77.44576 297 ft 3 kts 270°
2026-04-25 01:17 38.94414 -77.44579 297 ft 0 kts 269°
2026-04-25 01:17 38.94414 -77.44580 297 ft 1 kts 269°
2026-04-25 01:18 38.94414 -77.44584 297 ft 1 kts 269°
2026-04-25 01:18 38.94415 -77.44598 297 ft 2 kts 266°
2026-04-25 01:18 38.94418 -77.44638 297 ft 5 kts 303°
2026-04-25 01:18 38.94441 -77.44643 295 ft 5 kts
2026-04-25 01:19 38.94474 -77.44643 295 ft 1 kts
2026-04-25 01:19 38.94478 -77.44643 295 ft 0 kts 359°